This demonstration page uses our WeatherBlox Daily Observations layout. Learn more.

Left ArrowRight Arrow

31.31129, -92.44514

Hourly Observations for July 15, 2022

Temp ( °F °C ) Dew Point ( °F °C ) Humidity (%) Winds ( mph kmh ) Pressure ( in mb ) Visibility ( mi km ) Precip ( " mm )
12:53 am 00:53 Clear 77 25 73 22.8 88 88 Calm 30.07 1018 10 16 0.00 0.00
1:53 am 01:53 Clear 75 23.9 72 22.2 90 90 Calm 30.06 1018 10 16 0.00 0.00
2:53 am 02:53 Clear 74 23.3 72 22.2 94 94 Calm 30.06 1018 9 14 0.00 0.00
3:53 am 03:53 Clear 73 22.8 71 21.7 94 94 Calm 30.06 1018 10 16 0.00 0.00
4:53 am 04:53 Clear 74 23.3 72 22.2 94 94 ENE 3 6 30.08 1019 10 16 0.00 0.00
5:53 am 05:53 Clear 75 23.9 73 22.8 94 94 ESE 6 9 30.08 1019 10 16 0.00 0.00
6:53 am 06:53 Sunny 75 23.9 73 22.8 94 94 ESE 3 6 30.08 1019 10 16 0.00 0.00
7:53 am 07:53 Sunny 78 25.6 74 23.3 87 87 SSE 6 9 30.08 1019 10 16 0.00 0.00
8:53 am 08:53 Sunny 82 27.8 75 23.9 79 79 VRB 3 6 30.09 1019 10 16 0.00 0.00
9:53 am 09:53 Sunny 84 28.9 75 23.9 74 74 SSW 5 7 30.09 1019 10 16 0.00 0.00
10:53 am 10:53 Sunny 89 31.7 74 23.3 61 61 SSW 7 11 30.08 1019 10 16 0.00 0.00
11:53 am 11:53 Sunny 90 32.2 74 23.3 59 59 Calm 30.09 1019 10 16 0.00 0.00
12:53 pm 12:53 Sunny 92 33.3 72 22.2 52 52 VRB 5 7 30.07 1018 10 16 0.00 0.00
1:53 pm 13:53 Sunny 94 34.4 71 21.7 48 48 undefined N/A 30.06 1018 10 16 0.00 0.00
2:53 pm 14:53 Sunny 96 35.6 70 21.1 43 43 W 8 13 30.04 1017 10 16 0.00 0.00
3:53 pm 15:53 Sunny 97 36.1 70 21.1 42 42 W 7 11 30.02 1017 10 16 0.00 0.00
4:53 pm 16:53 Sunny 97 36.1 68 20 39 39 SSW 6 9 30.01 1016 10 16 0.00 0.00
5:53 pm 17:53 Partly Cloudy 94 34.4 72 22.2 49 49 ESE 14 22 30.00 1016 10 16 0.00 0.00
6:53 pm 18:53 Mostly Cloudy 87 30.6 71 21.7 59 59 SSE 9 15 30.01 1016 10 16 0.00 0.00
7:53 pm 19:53 Cloudy 86 30 73 22.8 65 65 SSE 6 9 30.01 1016 10 16 0.00 0.00
8:53 pm 20:53 Clear 83 28.3 74 23.3 74 74 S 6 9 30.01 1016 10 16 0.00 0.00
9:53 pm 21:53 Clear 81 27.2 73 22.8 77 77 S 3 6 30.04 1017 10 16 0.00 0.00
10:53 pm 22:53 Mostly Clear 79 26.1 73 22.8 82 82 S 3 6 30.04 1017 10 16 0.00 0.00
11:53 pm 23:53 Clear 78 25.6 73 22.8 85 85 SE 6 9 30.04 1017 10 16 0.00 0.00

Powered by AerisWeather